Time,TemperatureF,DewpointF,PressureIn,WindDirection,WindDirectionDegrees,WindSpeedMPH,WindSpeedGustMPH,Humidity,HourlyPrecipIn,Conditions,Clouds,dailyrainin,SoftwareType,DateUTC
2013-09-22 00:01:00,64.2,62.4,29.71,NW,325,7.3,11.0,94,0.08,RA,,0.00,WeatherDisplay:10.37,2013-09-22 04:01:00,
2013-09-22 00:06:00,64.2,62.4,29.72,NNW,342,3.6,4.6,94,0.08,RA,,0.00,WeatherDisplay:10.37,2013-09-22 04:06:00,
2013-09-22 00:11:00,64.0,62.2,29.72,NNW,336,5.1,6.9,94,0.06,OVC,,0.00,WeatherDisplay:10.37,2013-09-22 04:11:00,
2013-09-22 00:16:00,64.0,62.2,29.72,NW,325,6.1,9.2,94,0.05,OVC,,0.00,WeatherDisplay:10.37,2013-09-22 04:16:00,
2013-09-22 00:22:00,64.0,62.2,29.72,NNW,338,4.1,4.6,94,0.04,OVC,,0.00,WeatherDisplay:10.37,2013-09-22 04:22:00,
2013-09-22 00:27:00,64.0,62.2,29.73,NNW,348,3.3,6.0,94,0.03,OVC,,0.00,WeatherDisplay:10.37,2013-09-22 04:27:00,
2013-09-22 00:32:00,64.0,62.2,29.73,NNW,337,3.8,5.8,94,0.02,-RA,,0.00,WeatherDisplay:10.37,2013-09-22 04:32:00,
2013-09-22 00:37:00,64.0,62.2,29.73,NNW,340,2.8,4.0,94,0.02,-RA,,0.00,WeatherDisplay:10.37,2013-09-22 04:37:00,
2013-09-22 00:42:00,64.0,62.2,29.73,NNW,343,1.8,3.5,94,0.01,OVC,,0.00,WeatherDisplay:10.37,2013-09-22 04:42:00,
2013-09-22 00:47:00,64.0,62.2,29.74,NNW,337,0.0,3.5,94,0.00,OVC,,0.00,WeatherDisplay:10.37,2013-09-22 04:47:00,
2013-09-22 00:52:00,64.0,62.2,29.73,NNW,339,0.8,3.5,94,0.00,OVC,,0.00,WeatherDisplay:10.37,2013-09-22 04:52:00,
2013-09-22 00:57:00,63.9,62.1,29.74,West,281,1.0,3.5,94,0.00,OVC,,0.00,WeatherDisplay:10.37,2013-09-22 04:57:00,
2013-09-22 01:02:00,63.9,62.1,29.74,North,355,1.9,3.5,94,0.00,OVC,,0.00,WeatherDisplay:10.37,2013-09-22 05:02:00,
2013-09-22 01:07:00,63.9,62.1,29.74,North,351,0.0,0.0,94,0.00,OVC,,0.00,WeatherDisplay:10.37,2013-09-22 05:07:00,
2013-09-22 01:12:00,63.9,62.1,29.74,North,351,0.0,0.0,94,0.00,OVC,,0.00,WeatherDisplay:10.37,2013-09-22 05:12:00,
2013-09-22 01:17:00,63.9,62.1,29.74,North,351,0.0,0.0,94,0.00,OVC,,0.00,WeatherDisplay:10.37,2013-09-22 05:17:00,
2013-09-22 01:22:00,64.0,62.2,29.74,North,351,0.0,0.0,94,0.00,OVC,,0.00,WeatherDisplay:10.37,2013-09-22 05:22:00,
2013-09-22 01:27:00,64.0,62.2,29.75,North,351,0.0,0.0,94,0.00,OVC,,0.00,WeatherDisplay:10.37,2013-09-22 05:27:00,
2013-09-22 01:32:00,64.0,62.2,29.75,North,350,0.0,0.0,94,0.00,OVC,,0.00,WeatherDisplay:10.37,2013-09-22 05:32:00,
2013-09-22 01:37:00,63.9,62.1,29.75,North,350,0.0,0.0,94,0.00,OVC,,0.00,WeatherDisplay:10.37,2013-09-22 05:37:00,
2013-09-22 01:42:00,64.0,62.2,29.75,North,350,0.0,0.0,94,0.00,SCT,,0.00,WeatherDisplay:10.37,2013-09-22 05:42:00,
2013-09-22 01:47:00,64.2,62.4,29.74,North,350,0.0,0.0,94,0.00,SCT,,0.00,WeatherDisplay:10.37,2013-09-22 05:47:00,
2013-09-22 01:52:00,64.2,62.4,29.74,West,274,1.7,3.5,94,0.00,SCT,,0.00,WeatherDisplay:10.37,2013-09-22 05:52:00,
2013-09-22 01:57:00,64.2,62.4,29.74,West,274,0.0,0.0,94,0.00,SCT,,0.00,WeatherDisplay:10.37,2013-09-22 05:57:00,
2013-09-22 02:02:00,64.0,62.2,29.73,West,274,0.0,0.0,94,0.00,SCT,,0.00,WeatherDisplay:10.37,2013-09-22 06:02:00,
2013-09-22 02:07:00,64.0,62.2,29.73,West,274,0.0,1.2,94,0.00,SCT,,0.00,WeatherDisplay:10.37,2013-09-22 06:07:00,
2013-09-22 02:12:00,64.0,62.2,29.73,West,274,0.0,0.0,94,0.00,SCT,,0.00,WeatherDisplay:10.37,2013-09-22 06:12:00,
2013-09-22 02:17:00,64.0,62.2,29.74,West,274,0.0,0.0,94,0.00,SCT,,0.00,WeatherDisplay:10.37,2013-09-22 06:17:00,
2013-09-22 02:22:00,64.2,62.4,29.74,WNW,290,0.1,1.2,94,0.00,BKN,,0.00,WeatherDisplay:10.37,2013-09-22 06:22:00,
2013-09-22 02:27:00,64.2,62.4,29.74,WNW,290,0.0,0.0,94,0.00,BKN,,0.00,WeatherDisplay:10.37,2013-09-22 06:27:00,
2013-09-22 02:32:00,64.0,61.9,29.74,WNW,290,0.0,0.0,93,0.00,BKN,,0.00,WeatherDisplay:10.37,2013-09-22 06:32:00,
2013-09-22 02:37:00,64.2,62.1,29.74,WNW,290,0.0,0.0,93,0.00,BKN,,0.00,WeatherDisplay:10.37,2013-09-22 06:37:00,
2013-09-22 02:42:00,64.3,62.2,29.74,WNW,290,0.0,0.0,93,0.00,BKN,,0.00,WeatherDisplay:10.37,2013-09-22 06:42:00,
2013-09-22 02:47:00,64.3,62.2,29.74,WNW,290,0.0,1.2,93,0.00,BKN,,0.00,WeatherDisplay:10.37,2013-09-22 06:47:00,
2013-09-22 02:52:00,64.2,62.1,29.75,WNW,282,0.1,1.2,93,0.00,BKN,,0.00,WeatherDisplay:10.37,2013-09-22 06:52:00,
2013-09-22 02:57:00,64.0,61.9,29.75,WNW,285,0.1,1.2,93,0.00,BKN,,0.00,WeatherDisplay:10.37,2013-09-22 06:57:00,
2013-09-22 03:02:00,64.0,61.6,29.75,WNW,285,0.0,0.0,92,0.00,SCT,,0.00,WeatherDisplay:10.37,2013-09-22 07:02:00,
2013-09-22 03:07:00,63.9,61.5,29.75,WNW,285,0.0,0.0,92,0.00,SCT,,0.00,WeatherDisplay:10.37,2013-09-22 07:07:00,
2013-09-22 03:12:00,63.7,61.3,29.75,WNW,295,0.0,0.0,92,0.00,SCT,,0.00,WeatherDisplay:10.37,2013-09-22 07:12:00,
2013-09-22 03:17:00,63.7,61.3,29.75,WNW,295,0.0,0.0,92,0.00,SCT,,0.00,WeatherDisplay:10.37,2013-09-22 07:17:00,
2013-09-22 03:22:00,63.7,61.3,29.75,WNW,295,0.0,0.0,92,0.00,SCT,,0.00,WeatherDisplay:10.37,2013-09-22 07:22:00,
2013-09-22 03:27:00,63.7,61.3,29.75,WNW,295,0.0,0.0,92,0.00,SCT,,0.00,WeatherDisplay:10.37,2013-09-22 07:27:00,
2013-09-22 03:32:00,63.7,61.0,29.75,WNW,282,0.1,1.2,91,0.00,SCT,,0.00,WeatherDisplay:10.37,2013-09-22 07:32:00,
2013-09-22 03:37:00,63.7,61.0,29.75,West,269,0.1,1.2,91,0.00,SCT,,0.00,WeatherDisplay:10.37,2013-09-22 07:37:00,
2013-09-22 03:42:00,63.7,61.0,29.75,WNW,299,0.0,0.0,91,0.00,SCT,,0.00,WeatherDisplay:10.37,2013-09-22 07:42:00,
2013-09-22 03:47:00,63.7,61.0,29.75,WNW,299,0.0,0.0,91,0.00,SCT,,0.00,WeatherDisplay:10.37,2013-09-22 07:47:00,
2013-09-22 03:52:00,63.7,61.0,29.75,North,11,0.0,0.0,91,0.00,SCT,,0.00,WeatherDisplay:10.37,2013-09-22 07:52:00,
2013-09-22 03:57:00,63.5,60.8,29.75,North,11,0.0,0.0,91,0.00,SCT,,0.00,WeatherDisplay:10.37,2013-09-22 07:57:00,
2013-09-22 04:02:00,63.5,60.5,29.76,NW,326,0.0,0.0,90,0.00,SCT,,0.00,WeatherDisplay:10.37,2013-09-22 08:02:00,
2013-09-22 04:07:00,63.5,60.5,29.76,NW,326,0.0,0.0,90,0.00,SCT,,0.00,WeatherDisplay:10.37,2013-09-22 08:07:00,
2013-09-22 04:12:00,63.5,60.5,29.76,WNW,298,0.0,0.0,90,0.00,SCT,,0.00,WeatherDisplay:10.37,2013-09-22 08:12:00,
2013-09-22 04:17:00,63.4,60.4,29.76,WNW,294,0.0,0.0,90,0.00,SCT,,0.00,WeatherDisplay:10.37,2013-09-22 08:17:00,
2013-09-22 04:22:00,63.4,60.4,29.76,WNW,288,0.0,0.0,90,0.00,SCT,,0.00,WeatherDisplay:10.37,2013-09-22 08:22:00,
2013-09-22 04:27:00,63.1,60.1,29.76,WNW,288,0.0,0.0,90,0.00,SCT,,0.00,WeatherDisplay:10.37,2013-09-22 08:27:00,
2013-09-22 04:32:00,62.9,59.9,29.76,WNW,282,0.0,0.0,90,0.00,SCT,,0.00,WeatherDisplay:10.37,2013-09-22 08:32:00,
2013-09-22 04:37:00,62.7,59.7,29.76,WNW,282,0.0,0.0,90,0.00,SCT,,0.00,WeatherDisplay:10.37,2013-09-22 08:37:00,
2013-09-22 04:42:00,62.7,59.7,29.76,North,351,0.0,0.0,90,0.00,SCT,,0.00,WeatherDisplay:10.37,2013-09-22 08:42:00,
2013-09-22 04:47:00,62.6,59.6,29.76,West,270,0.0,0.0,90,0.00,SCT,,0.00,WeatherDisplay:10.37,2013-09-22 08:47:00,
2013-09-22 04:52:00,62.6,59.6,29.76,WNW,288,0.0,0.0,90,0.00,SCT,,0.00,WeatherDisplay:10.37,2013-09-22 08:52:00,
2013-09-22 04:57:00,62.4,59.4,29.76,West,264,0.0,0.0,90,0.00,SCT,,0.00,WeatherDisplay:10.37,2013-09-22 08:57:00,
2013-09-22 05:02:00,62.4,59.4,29.77,WNW,296,0.0,0.0,90,0.00,SCT,,0.00,WeatherDisplay:10.37,2013-09-22 09:02:00,
2013-09-22 05:07:00,62.3,59.0,29.77,WNW,296,0.0,0.0,89,0.00,SCT,,0.00,WeatherDisplay:10.37,2013-09-22 09:07:00,
2013-09-22 05:12:00,62.3,59.0,29.77,WNW,296,0.0,0.0,89,0.00,SCT,,0.00,WeatherDisplay:10.37,2013-09-22 09:12:00,
2013-09-22 05:17:00,62.3,59.3,29.77,WNW,296,0.0,0.0,90,0.00,SCT,,0.00,WeatherDisplay:10.37,2013-09-22 09:17:00,
2013-09-22 05:22:00,62.3,59.3,29.78,WNW,296,0.0,0.0,90,0.00,SCT,,0.00,WeatherDisplay:10.37,2013-09-22 09:22:00,
2013-09-22 05:27:00,62.1,59.1,29.78,WNW,296,0.0,0.0,90,0.00,SCT,,0.00,WeatherDisplay:10.37,2013-09-22 09:27:00,
2013-09-22 05:32:00,62.3,59.3,29.78,NW,309,0.0,0.0,90,0.00,SCT,,0.00,WeatherDisplay:10.37,2013-09-22 09:32:00,
2013-09-22 05:37:00,62.1,59.1,29.78,NW,310,0.0,0.0,90,0.00,SCT,,0.00,WeatherDisplay:10.37,2013-09-22 09:37:00,
2013-09-22 05:43:00,62.1,59.1,29.78,NW,310,0.0,0.0,90,0.00,SCT,,0.00,WeatherDisplay:10.37,2013-09-22 09:43:00,
2013-09-22 05:48:00,62.1,59.1,29.78,NW,310,0.0,0.0,90,0.00,SCT,,0.00,WeatherDisplay:10.37,2013-09-22 09:48:00,
2013-09-22 05:53:00,62.1,59.1,29.78,NW,310,0.0,0.0,90,0.00,SCT,,0.00,WeatherDisplay:10.37,2013-09-22 09:53:00,
2013-09-22 05:58:00,62.0,59.0,29.78,NW,310,0.0,0.0,90,0.00,SCT,,0.00,WeatherDisplay:10.37,2013-09-22 09:58:00,
2013-09-22 06:03:00,62.0,59.0,29.78,NW,310,0.0,0.0,90,0.00,SCT,,0.00,WeatherDisplay:10.37,2013-09-22 10:03:00,
2013-09-22 06:08:00,62.0,59.0,29.78,NW,310,0.0,0.0,90,0.00,SCT,,0.00,WeatherDisplay:10.37,2013-09-22 10:08:00,
2013-09-22 06:13:00,62.0,59.0,29.78,NNW,343,0.0,0.0,90,0.00,SCT,,0.00,WeatherDisplay:10.37,2013-09-22 10:13:00,
2013-09-22 06:18:00,62.0,59.0,29.79,NNW,340,0.0,0.0,90,0.00,SCT,,0.00,WeatherDisplay:10.37,2013-09-22 10:18:00,
2013-09-22 06:23:00,62.0,59.0,29.79,NNW,343,0.0,0.0,90,0.00,SCT,,0.00,WeatherDisplay:10.37,2013-09-22 10:23:00,
2013-09-22 06:28:00,62.1,58.8,29.79,North,350,0.0,0.0,89,0.00,SCT,,0.00,WeatherDisplay:10.37,2013-09-22 10:28:00,
2013-09-22 06:33:00,62.3,59.0,29.79,NNW,342,0.0,0.0,89,0.00,SCT,,0.00,WeatherDisplay:10.37,2013-09-22 10:33:00,
2013-09-22 06:38:00,62.4,58.8,29.79,NNW,342,0.0,0.0,88,0.00,SCT,,0.00,WeatherDisplay:10.37,2013-09-22 10:38:00,
2013-09-22 06:43:00,62.4,58.5,29.80,North,349,0.0,0.0,87,0.00,SCT,,0.00,WeatherDisplay:10.37,2013-09-22 10:43:00,
2013-09-22 06:48:00,62.4,58.5,29.80,NNW,344,0.0,0.0,87,0.00,SCT,,0.00,WeatherDisplay:10.37,2013-09-22 10:48:00,
2013-09-22 06:53:00,62.4,58.5,29.80,North,351,0.0,0.0,87,0.00,SCT,,0.00,WeatherDisplay:10.37,2013-09-22 10:53:00,
2013-09-22 06:58:00,62.4,58.5,29.80,NNW,348,0.0,0.0,87,0.00,SCT,,0.00,WeatherDisplay:10.37,2013-09-22 10:58:00,
2013-09-22 07:03:00,62.4,58.5,29.80,NNW,345,0.0,0.0,87,0.00,SCT,,0.00,WeatherDisplay:10.37,2013-09-22 11:03:00,
2013-09-22 07:08:00,62.4,58.2,29.80,NNW,346,0.0,0.0,86,0.00,SCT,,0.00,WeatherDisplay:10.37,2013-09-22 11:08:00,
2013-09-22 07:13:00,62.4,58.2,29.80,NNE,26,0.0,0.0,86,0.00,SCT,,0.00,WeatherDisplay:10.37,2013-09-22 11:13:00,
2013-09-22 07:18:00,62.4,58.2,29.81,NW,313,0.0,0.0,86,0.00,SCT,,0.00,WeatherDisplay:10.37,2013-09-22 11:18:00,
2013-09-22 07:23:00,62.3,57.7,29.81,NNW,338,0.0,0.0,85,0.00,CLR,,0.00,WeatherDisplay:10.37,2013-09-22 11:23:00,
2013-09-22 07:28:00,62.3,57.7,29.81,NNW,342,0.0,0.0,85,0.00,CLR,,0.00,WeatherDisplay:10.37,2013-09-22 11:28:00,
2013-09-22 07:33:00,62.3,57.7,29.81,NNW,341,0.0,0.0,85,0.00,CLR,,0.00,WeatherDisplay:10.37,2013-09-22 11:33:00,
2013-09-22 07:38:00,62.3,57.7,29.81,North,355,0.0,0.0,85,0.00,CLR,,0.00,WeatherDisplay:10.37,2013-09-22 11:38:00,
2013-09-22 07:43:00,62.4,57.8,29.81,North,351,0.0,0.0,85,0.00,CLR,,0.00,WeatherDisplay:10.37,2013-09-22 11:43:00,
2013-09-22 07:48:00,62.4,57.8,29.81,NNW,345,0.0,0.0,85,0.00,CLR,,0.00,WeatherDisplay:10.37,2013-09-22 11:48:00,
2013-09-22 07:53:00,62.6,58.0,29.82,North,355,0.0,0.0,85,0.00,CLR,,0.00,WeatherDisplay:10.37,2013-09-22 11:53:00,
2013-09-22 07:58:00,62.6,58.0,29.82,NNW,336,0.0,0.0,85,0.00,CLR,,0.00,WeatherDisplay:10.37,2013-09-22 11:58:00,
2013-09-22 08:03:00,62.7,58.1,29.82,NW,324,0.0,0.0,85,0.00,CLR,,0.00,WeatherDisplay:10.37,2013-09-22 12:03:00,
2013-09-22 08:08:00,62.7,58.1,29.82,North,355,0.0,0.0,85,0.00,CLR,,0.00,WeatherDisplay:10.37,2013-09-22 12:08:00,
2013-09-22 08:13:00,62.9,58.3,29.83,NW,318,0.1,0.0,85,0.00,CLR,,0.00,WeatherDisplay:10.37,2013-09-22 12:13:00,
2013-09-22 08:18:00,62.9,58.0,29.83,North,355,0.0,0.0,84,0.00,CLR,,0.00,WeatherDisplay:10.37,2013-09-22 12:18:00,
2013-09-22 08:23:00,63.1,58.2,29.83,NNW,339,0.0,0.0,84,0.00,CLR,,0.00,WeatherDisplay:10.37,2013-09-22 12:23:00,
2013-09-22 08:28:00,63.1,57.9,29.83,NNW,334,0.0,1.2,83,0.00,CLR,,0.00,WeatherDisplay:10.37,2013-09-22 12:28:00,
2013-09-22 08:33:00,63.2,57.9,29.83,NW,320,0.0,1.2,83,0.00,CLR,,0.00,WeatherDisplay:10.37,2013-09-22 12:33:00,
2013-09-22 08:38:00,63.2,57.9,29.83,NW,312,0.0,0.0,83,0.00,CLR,,0.00,WeatherDisplay:10.37,2013-09-22 12:38:00,
2013-09-22 08:43:00,63.2,57.9,29.83,NNW,327,0.3,2.3,83,0.00,CLR,,0.00,WeatherDisplay:10.37,2013-09-22 12:43:00,
2013-09-22 08:49:00,63.2,57.6,29.83,North,355,0.1,1.0,82,0.00,CLR,,0.00,WeatherDisplay:10.37,2013-09-22 12:49:00,
2013-09-22 08:54:00,63.4,57.8,29.84,NNW,338,0.1,1.2,82,0.00,CLR,,0.00,WeatherDisplay:10.37,2013-09-22 12:54:00,
2013-09-22 08:59:00,63.4,57.8,29.84,North,350,0.1,2.3,82,0.00,CLR,,0.00,WeatherDisplay:10.37,2013-09-22 12:59:00,
2013-09-22 09:04:00,63.5,57.6,29.84,NNW,336,0.0,0.0,81,0.00,CLR,,0.00,WeatherDisplay:10.37,2013-09-22 13:04:00,
2013-09-22 09:09:00,63.7,57.8,29.84,North,355,2.6,4.6,81,0.00,CLR,,0.00,WeatherDisplay:10.37,2013-09-22 13:09:00,
2013-09-22 09:14:00,63.7,57.8,29.84,NW,319,4.0,4.6,81,0.00,CLR,,0.00,WeatherDisplay:10.37,2013-09-22 13:14:00,
2013-09-22 09:19:00,63.9,58.0,29.84,NNW,337,4.2,9.2,81,0.00,CLR,,0.00,WeatherDisplay:10.37,2013-09-22 13:19:00,
2013-09-22 09:24:00,64.0,58.1,29.84,North,355,3.8,8.1,81,0.00,CLR,,0.00,WeatherDisplay:10.37,2013-09-22 13:24:00,
2013-09-22 09:29:00,64.0,57.7,29.85,NNW,339,5.0,11.5,80,0.00,CLR,,0.00,WeatherDisplay:10.37,2013-09-22 13:29:00,
2013-09-22 09:34:00,64.3,58.0,29.85,WNW,294,3.6,6.9,80,0.00,CLR,,0.00,WeatherDisplay:10.37,2013-09-22 13:34:00,
2013-09-22 09:39:00,64.5,57.8,29.85,WNW,291,3.7,6.9,79,0.00,CLR,,0.00,WeatherDisplay:10.37,2013-09-22 13:39:00,
2013-09-22 09:44:00,64.8,57.8,29.85,North,350,3.8,6.9,78,0.00,CLR,,0.00,WeatherDisplay:10.37,2013-09-22 13:44:00,
2013-09-22 09:49:00,64.8,57.8,29.85,NNW,346,3.2,5.8,78,0.00,CLR,,0.00,WeatherDisplay:10.37,2013-09-22 13:49:00,
2013-09-22 09:54:00,65.0,57.6,29.85,NNW,333,5.1,5.8,77,0.00,CLR,,0.00,WeatherDisplay:10.37,2013-09-22 13:54:00,
2013-09-22 09:59:00,65.2,57.8,29.86,NNW,338,1.9,6.9,77,0.00,CLR,,0.00,WeatherDisplay:10.37,2013-09-22 13:59:00,
2013-09-22 10:04:00,65.6,57.8,29.86,NNE,17,5.2,6.0,76,0.00,CLR,,0.00,WeatherDisplay:10.37,2013-09-22 14:04:00,
2013-09-22 10:09:00,65.6,57.8,29.86,NW,326,3.3,5.8,76,0.00,CLR,,0.00,WeatherDisplay:10.37,2013-09-22 14:09:00,
2013-09-22 10:14:00,65.6,57.1,29.86,NW,319,5.2,10.4,74,0.00,CLR,,0.00,WeatherDisplay:10.37,2013-09-22 14:14:00,
2013-09-22 10:19:00,66.1,58.3,29.86,NNW,346,3.0,5.0,76,0.00,CLR,CLR,0.00,WeatherDisplay:10.37,2013-09-22 14:19:00,
2013-09-22 10:24:00,66.4,58.6,29.86,North,353,0.0,7.0,76,0.00,CLR,CLR,0.00,WeatherDisplay:10.37,2013-09-22 14:24:00,
2013-09-22 10:29:00,66.4,58.2,29.86,North,360,3.6,6.9,75,0.00,CLR,,0.00,WeatherDisplay:10.37,2013-09-22 14:29:00,
2013-09-22 10:34:00,66.1,57.6,29.86,NNW,341,5.0,9.0,74,0.00,CLR,CLR,0.00,WeatherDisplay:10.37,2013-09-22 14:34:00,
2013-09-22 10:39:00,66.3,57.7,29.86,NNW,340,5.0,10.0,74,0.00,CLR,CLR,0.00,WeatherDisplay:10.37,2013-09-22 14:39:00,
2013-09-22 10:44:00,66.7,58.5,29.86,NNW,345,2.0,7.0,75,0.00,CLR,CLR,0.00,WeatherDisplay:10.37,2013-09-22 14:44:00,
2013-09-22 10:49:00,66.8,57.5,29.86,North,355,5.6,8.1,72,0.00,CLR,,0.00,WeatherDisplay:10.37,2013-09-22 14:49:00,
2013-09-22 10:54:00,66.9,57.6,29.86,NNW,347,2.0,9.0,72,0.00,CLR,CLR,0.00,WeatherDisplay:10.37,2013-09-22 14:54:00,
2013-09-22 10:59:00,67.4,57.7,29.86,NNW,336,2.0,3.5,71,0.00,CLR,,0.00,WeatherDisplay:10.37,2013-09-22 14:59:00,
2013-09-22 11:04:00,67.5,57.0,29.86,NNW,345,2.0,8.0,69,0.00,CLR,CLR,0.00,WeatherDisplay:10.37,2013-09-22 15:04:00,
2013-09-22 11:09:00,68.1,58.3,29.86,NNE,22,2.4,3.5,71,0.00,CLR,,0.00,WeatherDisplay:10.37,2013-09-22 15:09:00,
2013-09-22 11:14:00,68.4,57.4,29.86,NNW,342,3.0,8.0,68,0.00,CLR,CLR,0.00,WeatherDisplay:10.37,2013-09-22 15:14:00,
2013-09-22 11:19:00,68.8,57.8,29.86,North,5,3.3,4.0,68,0.00,CLR,,0.00,WeatherDisplay:10.37,2013-09-22 15:19:00,
2013-09-22 11:24:00,68.1,56.7,29.86,West,273,3.0,4.6,67,0.00,CLR,,0.00,WeatherDisplay:10.37,2013-09-22 15:24:00,
2013-09-22 11:29:00,67.9,56.5,29.85,NNW,331,1.8,6.0,67,0.00,CLR,,0.00,WeatherDisplay:10.37,2013-09-22 15:29:00,
2013-09-22 11:34:00,68.4,57.4,29.85,NNW,340,1.0,10.0,68,0.00,CLR,CLR,0.00,WeatherDisplay:10.37,2013-09-22 15:34:00,
2013-09-22 11:39:00,68.6,56.4,29.85,NNW,336,4.1,9.0,65,0.00,CLR,,0.00,WeatherDisplay:10.37,2013-09-22 15:39:00,
2013-09-22 11:44:00,68.6,57.6,29.85,NNW,345,2.5,5.8,68,0.00,CLR,,0.00,WeatherDisplay:10.37,2013-09-22 15:44:00,
2013-09-22 11:49:00,68.6,56.4,29.85,NNW,345,2.5,4.6,65,0.00,CLR,,0.00,WeatherDisplay:10.37,2013-09-22 15:49:00,
2013-09-22 11:54:00,69.3,57.0,29.85,North,351,2.9,4.6,65,0.00,CLR,,0.00,WeatherDisplay:10.37,2013-09-22 15:54:00,
2013-09-22 11:59:00,69.3,55.7,29.85,WNW,293,2.8,4.6,62,0.00,CLR,,0.00,WeatherDisplay:10.37,2013-09-22 15:59:00,
2013-09-22 12:04:00,69.4,54.9,29.85,NW,314,3.5,5.8,60,0.00,CLR,,0.00,WeatherDisplay:10.37,2013-09-22 16:04:00,
2013-09-22 12:09:00,69.3,54.4,29.85,NNE,13,4.5,7.0,59,0.00,CLR,,0.00,WeatherDisplay:10.37,2013-09-22 16:09:00,
2013-09-22 12:14:00,69.1,53.7,29.85,North,355,4.6,6.9,58,0.00,CLR,,0.00,WeatherDisplay:10.37,2013-09-22 16:14:00,
2013-09-22 12:19:00,68.8,53.9,29.85,NNW,338,3.9,6.9,59,0.00,CLR,,0.00,WeatherDisplay:10.37,2013-09-22 16:19:00,
2013-09-22 12:24:00,69.1,54.2,29.85,North,5,0.7,5.8,59,0.00,CLR,,0.00,WeatherDisplay:10.37,2013-09-22 16:24:00,
2013-09-22 12:30:00,70.1,55.1,29.85,East,86,2.2,3.5,59,0.00,CLR,,0.00,WeatherDisplay:10.37,2013-09-22 16:30:00,
2013-09-22 12:35:00,70.3,54.3,29.85,NW,316,2.5,9.0,57,0.00,CLR,,0.00,WeatherDisplay:10.37,2013-09-22 16:35:00,
2013-09-22 12:40:00,69.8,52.9,29.85,North,355,3.5,5.8,55,0.00,CLR,,0.00,WeatherDisplay:10.37,2013-09-22 16:40:00,
2013-09-22 12:45:00,70.4,53.5,29.85,NNW,337,2.1,6.0,55,0.00,CLR,,0.00,WeatherDisplay:10.37,2013-09-22 16:45:00,
2013-09-22 12:50:00,70.6,51.6,29.85,North,350,3.4,5.8,51,0.00,CLR,,0.00,WeatherDisplay:10.37,2013-09-22 16:50:00,
2013-09-22 12:55:00,70.4,51.9,29.85,NNW,346,3.2,5.8,52,0.00,CLR,,0.00,WeatherDisplay:10.37,2013-09-22 16:55:00,
2013-09-22 13:00:00,71.1,51.5,29.85,North,350,3.4,5.8,50,0.00,CLR,,0.00,WeatherDisplay:10.37,2013-09-22 17:00:00,
2013-09-22 13:05:00,70.9,51.3,29.85,North,355,6.0,10.4,50,0.00,CLR,,0.00,WeatherDisplay:10.37,2013-09-22 17:05:00,
2013-09-22 13:10:00,69.9,52.0,29.85,ENE,65,4.0,5.8,53,0.00,CLR,,0.00,WeatherDisplay:10.37,2013-09-22 17:10:00,
2013-09-22 13:15:00,70.4,52.4,29.85,NW,309,2.4,6.0,53,0.00,CLR,,0.00,WeatherDisplay:10.37,2013-09-22 17:15:00,
2013-09-22 13:20:00,70.4,50.3,29.84,North,355,4.7,6.9,49,0.00,CLR,,0.00,WeatherDisplay:10.37,2013-09-22 17:20:00,
2013-09-22 13:25:00,70.8,53.3,29.84,ESE,113,3.2,5.8,54,0.00,CLR,,0.00,WeatherDisplay:10.37,2013-09-22 17:25:00,
2013-09-22 13:30:00,70.8,51.2,29.84,NW,322,2.7,5.8,50,0.00,CLR,,0.00,WeatherDisplay:10.37,2013-09-22 17:30:00,
2013-09-22 13:35:00,70.8,51.2,29.84,NNW,335,4.2,5.8,50,0.00,CLR,,0.00,WeatherDisplay:10.37,2013-09-22 17:35:00,
2013-09-22 13:40:00,70.8,49.6,29.85,NNW,340,3.9,6.9,47,0.00,CLR,,0.00,WeatherDisplay:10.37,2013-09-22 17:40:00,
2013-09-22 13:45:00,69.9,51.5,29.84,NW,319,2.9,3.5,52,0.00,CLR,,0.00,WeatherDisplay:10.37,2013-09-22 17:45:00,
2013-09-22 13:50:00,69.9,50.4,29.85,NNW,344,3.6,4.6,50,0.00,CLR,,0.00,WeatherDisplay:10.37,2013-09-22 17:50:00,
2013-09-22 13:55:00,69.6,51.7,29.84,NW,325,3.2,5.8,53,0.00,CLR,,0.00,WeatherDisplay:10.37,2013-09-22 17:55:00,
2013-09-22 14:00:00,69.6,52.7,29.85,NNW,337,2.1,4.0,55,0.00,CLR,,0.00,WeatherDisplay:10.37,2013-09-22 18:00:00,
2013-09-22 14:05:00,69.3,50.9,29.85,NNW,342,3.3,5.8,52,0.00,CLR,,0.00,WeatherDisplay:10.37,2013-09-22 18:05:00,
2013-09-22 14:10:00,69.6,53.2,29.84,NW,311,1.4,3.5,56,0.00,CLR,,0.00,WeatherDisplay:10.37,2013-09-22 18:10:00,
2013-09-22 14:16:00,69.6,51.7,29.84,NW,321,1.4,3.5,53,0.00,CLR,,0.00,WeatherDisplay:10.37,2013-09-22 18:16:00,
2013-09-22 14:21:00,69.4,51.5,29.84,North,351,2.7,5.8,53,0.00,SCT,,0.00,WeatherDisplay:10.37,2013-09-22 18:21:00,
2013-09-22 14:26:00,69.6,51.7,29.84,NNW,338,4.0,6.9,53,0.00,SCT,,0.00,WeatherDisplay:10.37,2013-09-22 18:26:00,
2013-09-22 14:31:00,69.8,52.9,29.84,NNW,339,3.0,4.6,55,0.00,SCT,,0.00,WeatherDisplay:10.37,2013-09-22 18:31:00,
2013-09-22 14:36:00,69.6,52.2,29.84,North,11,2.6,4.6,54,0.00,SCT,,0.00,WeatherDisplay:10.37,2013-09-22 18:36:00,
2013-09-22 14:41:00,68.9,52.6,29.84,NNW,341,3.3,5.0,56,0.00,SCT,,0.00,WeatherDisplay:10.37,2013-09-22 18:41:00,
2013-09-22 14:46:00,68.6,52.3,29.84,NNW,344,2.1,3.5,56,0.00,SCT,,0.00,WeatherDisplay:10.37,2013-09-22 18:46:00,
2013-09-22 14:51:00,68.6,52.3,29.84,NNW,340,2.2,3.5,56,0.00,SCT,,0.00,WeatherDisplay:10.37,2013-09-22 18:51:00,
2013-09-22 14:56:00,68.4,51.6,29.84,North,350,2.3,5.8,55,0.00,SCT,,0.00,WeatherDisplay:10.37,2013-09-22 18:56:00,
2013-09-22 15:01:00,68.4,52.6,29.84,NNW,328,2.6,4.6,57,0.00,SCT,,0.00,WeatherDisplay:10.37,2013-09-22 19:01:00,
2013-09-22 15:06:00,68.6,52.3,29.84,NW,315,1.3,3.5,56,0.00,SCT,,0.00,WeatherDisplay:10.37,2013-09-22 19:06:00,
2013-09-22 15:11:00,69.3,53.4,29.84,NNW,344,0.0,1.2,57,0.00,SCT,,0.00,WeatherDisplay:10.37,2013-09-22 19:11:00,
2013-09-22 15:16:00,69.6,52.7,29.84,WNW,288,2.7,4.0,55,0.00,SCT,,0.00,WeatherDisplay:10.37,2013-09-22 19:16:00,
2013-09-22 15:21:00,69.4,51.5,29.84,NNW,337,3.6,5.0,53,0.00,SCT,,0.00,WeatherDisplay:10.37,2013-09-22 19:21:00,
2013-09-22 15:26:00,69.1,51.2,29.84,North,351,2.5,3.5,53,0.00,SCT,,0.00,WeatherDisplay:10.37,2013-09-22 19:26:00,
2013-09-22 15:31:00,68.9,51.6,29.84,NW,319,1.0,3.5,54,0.00,SCT,,0.00,WeatherDisplay:10.37,2013-09-22 19:31:00,
2013-09-22 15:36:00,69.1,51.8,29.84,NNW,336,2.4,5.8,54,0.00,SCT,,0.00,WeatherDisplay:10.37,2013-09-22 19:36:00,
2013-09-22 15:41:00,69.1,51.8,29.84,NW,318,1.2,3.5,54,0.00,SCT,,0.00,WeatherDisplay:10.37,2013-09-22 19:41:00,
2013-09-22 15:46:00,68.9,52.1,29.84,NNE,30,1.9,3.5,55,0.00,SCT,,0.00,WeatherDisplay:10.37,2013-09-22 19:46:00,
2013-09-22 15:51:00,68.9,51.6,29.84,North,355,2.2,5.8,54,0.00,SCT,,0.00,WeatherDisplay:10.37,2013-09-22 19:51:00,
2013-09-22 15:57:00,68.9,51.6,29.84,South,171,2.1,4.6,54,0.00,SCT,,0.00,WeatherDisplay:10.37,2013-09-22 19:57:00,
2013-09-22 16:02:00,68.9,52.1,29.84,NE,36,0.0,2.3,55,0.00,SCT,,0.00,WeatherDisplay:10.37,2013-09-22 20:02:00,
2013-09-22 16:07:00,68.9,52.1,29.84,NNW,333,2.1,3.5,55,0.00,SCT,,0.00,WeatherDisplay:10.37,2013-09-22 20:07:00,
2013-09-22 16:12:00,69.1,52.2,29.84,NNW,348,1.9,2.3,55,0.00,SCT,,0.00,WeatherDisplay:10.37,2013-09-22 20:12:00,
2013-09-22 16:17:00,69.3,51.9,29.83,NNW,332,1.8,3.0,54,0.00,SCT,,0.00,WeatherDisplay:10.37,2013-09-22 20:17:00,
2013-09-22 16:22:00,68.9,50.5,29.84,NNW,340,2.7,4.6,52,0.00,SCT,,0.00,WeatherDisplay:10.37,2013-09-22 20:22:00,
2013-09-22 16:27:00,68.8,51.5,29.84,NNW,339,2.6,3.5,54,0.00,SCT,,0.00,WeatherDisplay:10.37,2013-09-22 20:27:00,
2013-09-22 16:32:00,68.6,51.3,29.84,NNW,333,5.1,6.9,54,0.00,SCT,,0.00,WeatherDisplay:10.37,2013-09-22 20:32:00,
2013-09-22 16:37:00,68.4,51.1,29.84,NNW,333,2.6,6.9,54,0.00,SCT,,0.00,WeatherDisplay:10.37,2013-09-22 20:37:00,
2013-09-22 16:42:00,68.3,52.0,29.84,NNW,341,2.6,5.8,56,0.00,SCT,,0.00,WeatherDisplay:10.37,2013-09-22 20:42:00,
2013-09-22 16:47:00,68.3,52.0,29.84,North,360,2.2,3.5,56,0.00,SCT,,0.00,WeatherDisplay:10.37,2013-09-22 20:47:00,
2013-09-22 16:52:00,68.3,52.0,29.84,North,351,2.5,3.5,56,0.00,SCT,,0.00,WeatherDisplay:10.37,2013-09-22 20:52:00,
2013-09-22 16:57:00,68.3,52.0,29.84,North,351,0.6,0.0,56,0.00,SCT,,0.00,WeatherDisplay:10.37,2013-09-22 20:57:00,
2013-09-22 17:02:00,68.4,52.1,29.84,North,355,0.0,0.0,56,0.00,SCT,,0.00,WeatherDisplay:10.37,2013-09-22 21:02:00,
2013-09-22 17:07:00,68.9,52.1,29.84,NW,308,1.1,3.0,55,0.00,SCT,,0.00,WeatherDisplay:10.37,2013-09-22 21:07:00,
2013-09-22 17:12:00,69.3,51.9,29.84,NNW,340,2.9,5.8,54,0.00,SCT,,0.00,WeatherDisplay:10.37,2013-09-22 21:12:00,
2013-09-22 17:17:00,69.1,52.2,29.84,NNW,336,2.3,4.0,55,0.00,SCT,,0.00,WeatherDisplay:10.37,2013-09-22 21:17:00,
2013-09-22 17:22:00,68.6,51.8,29.84,North,351,0.8,3.5,55,0.00,SCT,,0.00,WeatherDisplay:10.37,2013-09-22 21:22:00,
2013-09-22 17:27:00,68.4,52.6,29.85,NNW,345,2.2,4.6,57,0.00,SCT,,0.00,WeatherDisplay:10.37,2013-09-22 21:27:00,
2013-09-22 17:32:00,68.8,52.0,29.85,North,349,2.9,4.6,55,0.00,SCT,,0.00,WeatherDisplay:10.37,2013-09-22 21:32:00,
2013-09-22 17:37:00,69.4,52.0,29.85,NNW,338,3.1,5.0,54,0.00,SCT,,0.00,WeatherDisplay:10.37,2013-09-22 21:37:00,
2013-09-22 17:42:00,69.3,51.4,29.85,NNW,328,2.4,5.8,53,0.00,BKN,,0.00,WeatherDisplay:10.37,2013-09-22 21:42:00,
2013-09-22 17:47:00,69.4,51.5,29.86,NNW,338,0.0,0.0,53,0.00,BKN,,0.00,WeatherDisplay:10.37,2013-09-22 21:47:00,
2013-09-22 17:52:00,68.9,52.1,29.86,NNW,333,0.4,2.3,55,0.00,BKN,,0.00,WeatherDisplay:10.37,2013-09-22 21:52:00,
2013-09-22 17:57:00,68.3,52.5,29.86,NNW,333,0.0,0.0,57,0.00,BKN,,0.00,WeatherDisplay:10.37,2013-09-22 21:57:00,
2013-09-22 18:02:00,67.8,52.5,29.86,NNW,333,0.0,0.0,58,0.00,BKN,,0.00,WeatherDisplay:10.37,2013-09-22 22:02:00,
2013-09-22 18:07:00,67.3,52.5,29.86,NNW,333,0.0,0.0,59,0.00,BKN,,0.00,WeatherDisplay:10.37,2013-09-22 22:07:00,
2013-09-22 18:12:00,66.9,53.0,29.86,NNW,333,1.2,2.3,61,0.00,BKN,,0.00,WeatherDisplay:10.37,2013-09-22 22:12:00,
2013-09-22 18:17:00,66.8,51.5,29.86,NNW,338,1.2,3.5,58,0.00,BKN,,0.00,WeatherDisplay:10.37,2013-09-22 22:17:00,
2013-09-22 18:22:00,67.1,50.9,29.86,NNW,348,4.7,6.9,56,0.00,BKN,,0.00,WeatherDisplay:10.37,2013-09-22 22:22:00,
2013-09-22 18:27:00,67.3,51.1,29.86,NNW,340,2.6,3.5,56,0.00,BKN,,0.00,WeatherDisplay:10.37,2013-09-22 22:27:00,
2013-09-22 18:32:00,67.3,49.1,29.86,NNW,334,4.5,9.0,52,0.00,SCT,,0.00,WeatherDisplay:10.37,2013-09-22 22:32:00,
2013-09-22 18:37:00,67.4,48.6,29.86,NNE,24,2.9,4.6,51,0.00,SCT,,0.00,WeatherDisplay:10.37,2013-09-22 22:37:00,
2013-09-22 18:42:00,67.3,49.1,29.87,North,355,3.6,4.6,52,0.00,SCT,,0.00,WeatherDisplay:10.37,2013-09-22 22:42:00,
2013-09-22 18:47:00,67.3,49.1,29.86,NNW,341,1.4,3.5,52,0.00,SCT,,0.00,WeatherDisplay:10.37,2013-09-22 22:47:00,
2013-09-22 18:52:00,67.1,49.4,29.86,North,355,2.9,4.0,53,0.00,SCT,,0.00,WeatherDisplay:10.37,2013-09-22 22:52:00,
2013-09-22 18:58:00,67.1,47.8,29.87,NNW,347,3.4,6.9,50,0.00,SCT,,0.00,WeatherDisplay:10.37,2013-09-22 22:58:00,
2013-09-22 19:03:00,67.1,47.8,29.87,North,349,3.6,8.1,50,0.00,SCT,,0.00,WeatherDisplay:10.37,2013-09-22 23:03:00,
2013-09-22 19:08:00,67.1,49.4,29.87,NNW,331,4.8,9.2,53,0.00,SCT,,0.00,WeatherDisplay:10.37,2013-09-22 23:08:00,
2013-09-22 19:13:00,66.6,49.9,29.87,NNW,333,2.0,3.5,55,0.00,SCT,,0.00,WeatherDisplay:10.37,2013-09-22 23:13:00,
2013-09-22 19:18:00,66.0,49.4,29.88,NNW,343,3.8,5.8,55,0.00,SCT,,0.00,WeatherDisplay:10.37,2013-09-22 23:18:00,
2013-09-22 19:23:00,65.6,49.5,29.88,NNW,342,4.5,4.6,56,0.00,SCT,,0.00,WeatherDisplay:10.37,2013-09-22 23:23:00,
2013-09-22 19:28:00,65.6,50.0,29.88,NW,324,2.4,6.0,57,0.00,SCT,,0.00,WeatherDisplay:10.37,2013-09-22 23:28:00,
2013-09-22 19:33:00,65.6,49.5,29.89,North,349,3.3,4.6,56,0.00,SCT,,0.00,WeatherDisplay:10.37,2013-09-22 23:33:00,
2013-09-22 19:38:00,65.8,49.2,29.89,NNW,337,2.9,5.8,55,0.00,SCT,,0.00,WeatherDisplay:10.37,2013-09-22 23:38:00,
2013-09-22 19:43:00,65.8,49.2,29.89,NNW,336,1.9,3.5,55,0.00,SCT,,0.00,WeatherDisplay:10.37,2013-09-22 23:43:00,
2013-09-22 19:48:00,65.8,49.2,29.89,North,350,2.7,9.0,55,0.00,SCT,,0.00,WeatherDisplay:10.37,2013-09-22 23:48:00,
2013-09-22 19:53:00,66.0,48.9,29.89,NNW,342,3.4,4.6,54,0.00,SCT,,0.00,WeatherDisplay:10.37,2013-09-22 23:53:00,
2013-09-22 19:58:00,65.8,48.7,29.89,NNW,340,3.9,7.0,54,0.00,SCT,,0.00,WeatherDisplay:10.37,2013-09-22 23:58:00,
2013-09-22 20:03:00,65.8,48.7,29.90,NNW,342,2.7,4.6,54,0.00,SCT,,0.00,WeatherDisplay:10.37,2013-09-23 00:03:00,
2013-09-22 20:08:00,65.6,48.5,29.90,North,355,3.1,6.9,54,0.00,SCT,,0.00,WeatherDisplay:10.37,2013-09-23 00:08:00,
2013-09-22 20:14:00,65.6,48.0,29.90,NNW,338,6.5,11.5,53,0.00,SCT,,0.00,WeatherDisplay:10.37,2013-09-23 00:14:00,
2013-09-22 20:19:00,65.5,48.4,29.90,NW,326,3.2,8.1,54,0.00,SCT,,0.00,WeatherDisplay:10.37,2013-09-23 00:19:00,
2013-09-22 20:24:00,65.3,48.2,29.90,NNW,344,5.1,9.2,54,0.00,SCT,,0.00,WeatherDisplay:10.37,2013-09-23 00:24:00,
2013-09-22 20:29:00,65.2,48.6,29.91,NNW,336,4.9,5.8,55,0.00,SCT,,0.00,WeatherDisplay:10.37,2013-09-23 00:29:00,
2013-09-22 20:34:00,65.0,48.9,29.91,NNW,346,3.5,6.9,56,0.00,SCT,,0.00,WeatherDisplay:10.37,2013-09-23 00:34:00,
2013-09-22 20:39:00,64.8,48.7,29.91,NNW,344,2.2,7.0,56,0.00,SCT,,0.00,WeatherDisplay:10.37,2013-09-23 00:39:00,
2013-09-22 20:44:00,64.8,48.2,29.91,NNW,340,4.6,7.0,55,0.00,SCT,,0.00,WeatherDisplay:10.37,2013-09-23 00:44:00,
2013-09-22 20:49:00,65.2,47.6,29.91,North,351,4.2,6.9,53,0.00,SCT,,0.00,WeatherDisplay:10.37,2013-09-23 00:49:00,
2013-09-22 20:54:00,65.0,47.4,29.91,NW,323,5.3,7.0,53,0.00,SCT,,0.00,WeatherDisplay:10.37,2013-09-23 00:54:00,
2013-09-22 20:59:00,64.8,48.2,29.91,NW,324,4.7,10.0,55,0.00,SCT,,0.00,WeatherDisplay:10.37,2013-09-23 00:59:00,
2013-09-22 21:04:00,64.7,48.6,29.91,North,355,2.9,9.2,56,0.00,SCT,,0.00,WeatherDisplay:10.37,2013-09-23 01:04:00,
2013-09-22 21:09:00,64.5,48.4,29.91,NNW,335,3.5,8.1,56,0.00,SCT,,0.00,WeatherDisplay:10.37,2013-09-23 01:09:00,
2013-09-22 21:14:00,64.5,48.4,29.92,NNW,333,4.5,10.4,56,0.00,SCT,,0.00,WeatherDisplay:10.37,2013-09-23 01:14:00,
2013-09-22 21:19:00,64.3,48.3,29.92,NNW,345,4.4,6.0,56,0.00,SCT,,0.00,WeatherDisplay:10.37,2013-09-23 01:19:00,
2013-09-22 21:24:00,64.2,48.2,29.92,NNW,340,3.0,7.0,56,0.00,SCT,SCT,0.00,WeatherDisplay:10.37,2013-09-23 01:24:00,
2013-09-22 21:29:00,64.0,48.5,29.92,NNW,329,5.0,6.9,57,0.00,SCT,,0.00,WeatherDisplay:10.37,2013-09-23 01:29:00,
2013-09-22 21:34:00,64.0,48.0,29.92,NNW,341,3.0,12.0,56,0.00,SCT,SCT,0.00,WeatherDisplay:10.37,2013-09-23 01:34:00,
2013-09-22 21:39:00,64.0,48.0,29.92,NNW,338,5.9,10.4,56,0.00,SCT,,0.00,WeatherDisplay:10.37,2013-09-23 01:39:00,
2013-09-22 21:44:00,64.0,48.9,29.92,North,355,5.6,9.2,58,0.00,SCT,,0.00,WeatherDisplay:10.37,2013-09-23 01:44:00,
2013-09-22 21:49:00,63.9,48.4,29.92,NNW,340,7.0,12.0,57,0.00,SCT,SCT,0.00,WeatherDisplay:10.37,2013-09-23 01:49:00,
2013-09-22 21:54:00,63.9,47.9,29.92,NNW,343,7.0,13.0,56,0.00,SCT,SCT,0.00,WeatherDisplay:10.37,2013-09-23 01:54:00,
2013-09-22 21:59:00,63.9,47.9,29.93,NNW,338,4.7,11.5,56,0.00,SCT,,0.00,WeatherDisplay:10.37,2013-09-23 01:59:00,
2013-09-22 22:04:00,63.7,48.2,29.93,NNW,339,6.0,10.0,57,0.00,CLR,CLR,0.00,WeatherDisplay:10.37,2013-09-23 02:04:00,
2013-09-22 22:09:00,63.5,48.0,29.93,NW,325,4.1,10.4,57,0.00,CLR,,0.00,WeatherDisplay:10.37,2013-09-23 02:09:00,
2013-09-22 22:14:00,63.4,48.4,29.93,NNW,340,7.0,12.0,58,0.00,CLR,CLR,0.00,WeatherDisplay:10.37,2013-09-23 02:14:00,
2013-09-22 22:19:00,63.4,47.4,29.93,NNW,347,6.1,11.5,56,0.00,CLR,,0.00,WeatherDisplay:10.37,2013-09-23 02:19:00,
2013-09-22 22:24:00,63.4,48.4,29.94,NNW,338,5.0,8.0,58,0.00,CLR,CLR,0.00,WeatherDisplay:10.37,2013-09-23 02:24:00,
2013-09-22 22:29:00,63.4,47.4,29.94,North,355,6.3,9.2,56,0.00,CLR,,0.00,WeatherDisplay:10.37,2013-09-23 02:29:00,
2013-09-22 22:34:00,63.4,47.4,29.94,NNW,344,5.0,5.0,56,0.00,CLR,,0.00,WeatherDisplay:10.37,2013-09-23 02:34:00,
2013-09-22 22:39:00,63.2,48.6,29.94,ENE,67,4.4,6.9,59,0.00,CLR,,0.00,WeatherDisplay:10.37,2013-09-23 02:39:00,
2013-09-22 22:44:00,62.9,48.3,29.94,NNW,348,3.0,6.0,59,0.00,CLR,CLR,0.00,WeatherDisplay:10.37,2013-09-23 02:44:00,
2013-09-22 22:49:00,62.7,47.7,29.94,NNW,333,5.6,9.2,58,0.00,CLR,,0.00,WeatherDisplay:10.37,2013-09-23 02:49:00,
2013-09-22 22:54:00,62.6,46.7,29.94,NNW,329,6.0,12.0,56,0.00,CLR,CLR,0.00,WeatherDisplay:10.37,2013-09-23 02:54:00,
2013-09-22 22:59:00,62.5,47.5,29.94,NNW,334,5.0,8.0,58,0.00,CLR,CLR,0.00,WeatherDisplay:10.37,2013-09-23 02:59:00,
2013-09-22 23:04:00,62.3,47.3,29.94,NNW,347,4.7,9.2,58,0.00,CLR,,0.00,WeatherDisplay:10.37,2013-09-23 03:04:00,
2013-09-22 23:09:00,62.3,47.8,29.94,NNW,339,3.0,10.0,59,0.00,CLR,CLR,0.00,WeatherDisplay:10.37,2013-09-23 03:09:00,
2013-09-22 23:14:00,62.3,47.8,29.95,NNW,337,5.0,8.0,59,0.00,CLR,CLR,0.00,WeatherDisplay:10.37,2013-09-23 03:14:00,
2013-09-22 23:19:00,62.3,48.2,29.95,NNW,332,5.0,9.2,60,0.00,CLR,,0.00,WeatherDisplay:10.37,2013-09-23 03:19:00,
2013-09-22 23:24:00,62.1,48.0,29.95,NNW,343,5.7,10.0,60,0.00,CLR,,0.00,WeatherDisplay:10.37,2013-09-23 03:24:00,
2013-09-22 23:29:00,62.1,48.0,29.95,NNW,340,4.9,10.4,60,0.00,CLR,,0.00,WeatherDisplay:10.37,2013-09-23 03:29:00,
2013-09-22 23:34:00,62.0,48.0,29.95,NW,325,6.4,10.4,60,0.00,CLR,,0.00,WeatherDisplay:10.37,2013-09-23 03:34:00,
2013-09-22 23:39:00,62.0,48.0,29.95,NNW,342,5.0,10.0,60,0.00,CLR,CLR,0.00,WeatherDisplay:10.37,2013-09-23 03:39:00,
2013-09-22 23:44:00,61.8,48.2,29.95,NNW,346,6.0,12.0,61,0.00,CLR,CLR,0.00,WeatherDisplay:10.37,2013-09-23 03:44:00,
2013-09-22 23:49:00,61.5,47.0,29.95,NNW,339,7.4,9.2,59,0.00,CLR,,0.00,WeatherDisplay:10.37,2013-09-23 03:49:00,
2013-09-22 23:54:00,61.4,47.9,29.95,NNW,346,3.0,9.0,61,0.00,CLR,CLR,0.00,WeatherDisplay:10.37,2013-09-23 03:54:00,
2013-09-22 23:59:00,61.0,47.9,29.95,NNW,342,3.2,4.6,62,0.00,CLR,,0.00,WeatherDisplay:10.37,2013-09-23 03:59:00,